User: anonymous   Login
Location: Unspecified
(0.0000°N, 0.0000°E)
Time: 05:47:48
(UTC+00:00)
Language:

STARLINK-32399 - Orbit

View from above orbital plane
View from above orbital plane
View from above satellite
View from above satellite

Ground track
Ground track

The orbit is defined by the following mean orbital elements,

1 61627U          26145.52803882 +.00000000 +00000-0 +53606-3 0 00002
2 61627  43.0050  73.1318 0000549 291.9188  68.1605 15.27519993    02
Epoch (UTC): 25 May 2026 12:40:22
Eccentricity: 0.0000549
inclination: 43.0050°
perigee height: 483 km
apogee height: 484 km
right ascension of ascending node: 73.1318°
argument of perigee: 291.9188°
revolutions per day: 15.27519993
mean anomaly at epoch: 68.1605°

The dashed part of the orbit path shows where the satellite is in the earth's shadow,  

DLR